Location: Arleux
(50.3632°N, 2.8721°E)
Time: 20:43:30
(UTC+00:00)

Okean-O - Pass Details

Date: 15 December 2019
Orbit: 639 x 641 km, 98.2° (Epoch: 18 January)

Event Time Altitude Azimuth Distance (km) Brightness Sun altitude
Rises 06:29:44 0° 16° (NNE) 2,958 6.0 -10.7°
Reaches altitude 10° 06:31:58 10° 20° (NNE) 2,044 5.2 -10.4°
Maximum altitude 06:36:24 62° 102° (ESE) 721 3.2 -9.8°
Drops below altitude 10° 06:40:46 10° 184° (S) 2,026 5.5 -9.1°
Sets 06:42:59 0° 187° (S) 2,931 6.3 -8.8°
